Rbgn^[z[y[W
メイン
   新天体発見情報
     Comet C/2022 W2 (ATLAS)
投稿するにはまず登録を

フラット表示 前のトピック | 次のトピック
投稿者 スレッド
佐藤裕久
投稿日時: 2023-1-31 21:30
モデレータ
登録日: 2005-6-12
居住地: 日本
投稿: 2444
オンライン
Comet C/2022 W2 (ATLAS)

A. Fitzsimmonsの通報によると、11月24日UT、ハワイ Haleakalaにある小惑星地球衝突最終
警報システム Asteroid Terrestrial-impact Last Alert System (ATLAS)調査プログラムの
コースに0.5-m f/2 Schmidt反射望遠鏡で得たCCD画像から発見した。
この天体は、30秒露出4枚では非恒星状に見え、4"6のシーインで、7"6(半値全幅:FWHM)で
あった。
小惑星センターのPCCP webpageに公表後、他のCCD観測者によって彗星状と確認された。
その後、Q.-z. Yeは、2022年11月5日UT、Palomar 1.2-m F2.4 Schmidt望遠鏡のZTFカメラで
得た発見前(小惑星と思われる)の彗星の画像を確認した。

彗星機能の報告は次のとおり、

OC   Date        Reporter           Coma    Tail    PA          Exposures
950  2022-11-25  M. Masek           9"                           48x60s
G00  2022-11-27  M. Jaeger          7"       11"     30-95       16x120s
I22  2022-11-29  F. D. Romanov      7"                           53x60s
B42  2022-12-01  V. Nevski          9"
204  2022-12-06  A. Aletti          7"
G00  2022-12-12  M. Jaeger         12"
B96  2022-12-12  E. Bryssinck      10"                           25x120s

発見位置は次のとおり、

     2022 UT             R.A. (2000) Decl.       Mag.
     Nov. 24.23624   18 37 12.05   +76 45 16.8   19.1
          24.24168   18 37 12.87   +76 45 15.8   18.9
          24.24530   18 37 13.13   +76 45 14.3   18.9
          24.26172   18 37 14.72   +76 45 13.2   18.7

MPCの楕円軌道要素、位置推算表は次のとおり、

Orbital elements:
    C/2022 W2 (ATLAS)                                                           
Epoch 2023 Feb. 25.0 TT = JDT 2460000.5                                         
T 2023 Mar. 8.58453 TT                                  Rudenko                 
q   3.1228626            (2000.0)            P               Q                  
z  +0.0031170      Peri.  123.23010     -0.18520141     -0.80055017             
 +/-0.0000002      Node   320.45568     +0.28604757     +0.51093243             
e   0.9902660      Incl.   63.52975     +0.94014745     -0.31315726             
From 197 observations 2022 Nov. 5-2023 Jan. 9, mean residual 0".4.              
                                                                                
Ephemeris:
Date    TT    R. A. (2000) Decl.     Delta      r    Elong.  Phase   m1
2022 12 11    19 10 01.2 +76 45 36   2.8943  3.2354   101.3    17.4  18.9
...
2022 12 26    19 55 09.6 +77 37 34   2.8475  3.2007   102.0    17.5  18.8
...
2023 01 03    20 27 34.9 +78 20 19   2.8290  3.1847   102.2    17.6  18.8
...
2023 01 09    20 56 58.4 +78 55 35   2.8189  3.1739   102.1    17.6  18.8
2023 01 10    21 02 21.9 +79 01 30   2.8176  3.1722   102.1    17.6  18.8
2023 01 11    21 07 54.4 +79 07 22   2.8163  3.1705   102.0    17.7  18.8
...
2023 01 17    21 44 31.3 +79 40 42   2.8111  3.1610   101.7    17.7  18.7
...
2023 01 25    22 42 45.0 +80 13 51   2.8106  3.1500   101.0    17.9  18.7
...
2023 02 09    00 51 58.1 +80 00 59   2.8325  3.1343    98.5    18.1  18.7

(MPEC 2023-A28、CBET 5203)

フラット表示 前のトピック | 次のトピック

題名 投稿者 日時
 » Comet C/2022 W2 (ATLAS) 佐藤裕久 2023-1-31 21:30

投稿するにはまず登録を
 
© 1999 Tsutomu Seki.